Goshen, IN

8:59 AM EST on January 21, 2018 (GMT -0500)
Goshen Municipal

Weather History for KGSH - September, 2012

Change the Weather History Date:

Sunday, September 30, 2012

  Actual Average Record
Temperature  
Mean Temperature 52 °F -  
Max Temperature 66 °F 69 °F 85 °F (1971)
Min Temperature 39 °F 48 °F 32 °F (1949)
Degree Days  
Heating Degree Days 12    
Growing Degree Days 2 (Base 50)    
Moisture  
Dew Point 43 °F    
Average Humidity 80    
Maximum Humidity 100    
Minimum Humidity 43    
Precipitation  
Precipitation 0.00 in - - ()
Sea Level Pressure  
Sea Level Pressure 29.94 in    
Wind  
Wind Speed 3 mph (NNE)    
Max Wind Speed 13 mph    
Max Gust Speed 17 mph    
Visibility 6 miles    
Events Fog    
Averages and records for this station are not official NWS values.
T = Trace of Precipitation, MM = Missing Value Source: NWS Daily Summary

Daily Weather History Graph

Daily Weather History Graph

Search for Another Location

Airport or City:

Trip Planner

Search our weather history database for the weather conditions in past years. The results will help you decide how hot, cold, wet, or windy it might be!

Date:

Astronomy

Sep. 30, 2012 Rise Set
Actual Time 7:39 AM EDT 7:25 PM EDT
Civil Twilight 7:11 AM EDT 7:53 PM EDT
Nautical Twilight 6:39 AM EDT 8:25 PM EDT
Astronomical Twilight 6:07 AM EDT 8:57 PM EDT
Moon 7:27 PM EDT (9/30) 8:10 AM EDT (9/30)
Length of Visible Light 12h 41m
Length of Day
11h 46m
Full, 100% of the Moon is Illuminated
Sep 30
Full
Oct 8
Last Quarter
Oct 15
New
Oct 21
First Quarter
Oct 29
Full

Hourly Weather History & Observations

Time (EDT) Temp. Windchill Dew Point Humidity Pressure Visibility Wind Dir Wind Speed Gust Speed Precip Events Conditions
12:53 AM 48.0 °F - 45.0 °F 89% 29.94 in 10.0 mi Calm Calm - N/A   Clear
1:53 AM 48.0 °F - 46.0 °F 93% 29.94 in 5.0 mi Calm Calm - N/A   Clear
2:33 AM 44.6 °F 43.1 °F 42.8 °F 93% 29.94 in 0.8 mi West 3.5 mph - N/A   Clear
2:40 AM 46.4 °F 45.2 °F 42.8 °F 87% 29.94 in 0.2 mi WNW 3.5 mph - N/A Fog Fog
2:53 AM 45.0 °F - 43.0 °F 93% 29.94 in 0.2 mi Calm Calm - N/A Fog Fog
3:38 AM 48.2 °F - 44.6 °F 87% 29.93 in 1.0 mi NNW 3.5 mph - N/A   Clear
3:44 AM 48.2 °F - 46.4 °F 93% 29.92 in 3.0 mi NNW 3.5 mph - N/A   Clear
3:53 AM 48.0 °F - 46.0 °F 93% 29.92 in 3.0 mi NNW 3.5 mph - N/A   Clear
3:59 AM 46.4 °F - 44.6 °F 93% 29.92 in 1.2 mi Calm Calm - N/A   Clear
4:01 AM 46.4 °F - 44.6 °F 93% 29.92 in 0.5 mi Calm Calm - N/A Fog Fog
4:36 AM 44.6 °F 43.1 °F 44.6 °F 100% 29.92 in 0.2 mi NNE 3.5 mph - N/A Fog Fog
4:53 AM 45.0 °F 43.5 °F 44.1 °F 97% 29.92 in 0.2 mi NNE 3.5 mph - N/A Fog Fog
5:53 AM 43.0 °F - 42.1 °F 97% 29.92 in 0.2 mi Calm Calm - N/A Fog Fog
6:32 AM 39.2 °F - 39.2 °F 100% 29.91 in 0.2 mi Calm Calm - N/A Fog Fog
6:53 AM 42.1 °F - 39.9 °F 92% 29.92 in 0.2 mi Calm Calm - N/A Fog Fog
7:02 AM 42.8 °F 40.1 °F 39.2 °F 87% 29.92 in 0.2 mi NNE 4.6 mph - N/A Fog Fog
7:10 AM 41.0 °F 38.0 °F 39.2 °F 93% 29.92 in 1.0 mi NNE 4.6 mph - N/A   Clear
7:14 AM 42.8 °F 40.1 °F 39.2 °F 87% 29.92 in 3.0 mi North 4.6 mph - N/A   Clear
7:53 AM 45.0 °F 40.1 °F 43.0 °F 93% 29.94 in 10.0 mi NNE 9.2 mph - N/A   Clear
8:53 AM 48.9 °F - 46.0 °F 90% 29.95 in 10.0 mi NE 8.1 mph - N/A   Clear
9:53 AM 53.1 °F - 48.0 °F 83% 29.97 in 10.0 mi NNE 9.2 mph - N/A   Clear
10:53 AM 55.0 °F - 48.9 °F 80% 29.97 in 10.0 mi NE 6.9 mph - N/A   Clear
11:53 AM 60.1 °F - 48.0 °F 64% 29.98 in 10.0 mi NE 6.9 mph - N/A   Clear
12:53 PM 63.0 °F - 46.0 °F 54% 29.97 in 10.0 mi ENE 12.7 mph 17.3 mph N/A   Clear
1:53 PM 64.0 °F - 45.0 °F 50% 29.96 in 10.0 mi NNE 11.5 mph - N/A   Scattered Clouds
2:53 PM 63.0 °F - 43.0 °F 48% 29.95 in 10.0 mi NE 8.1 mph - N/A   Partly Cloudy
3:53 PM 66.0 °F - 44.1 °F 45% 29.93 in 10.0 mi NE 8.1 mph - N/A   Partly Cloudy
4:53 PM 64.9 °F - 42.1 °F 43% 29.92 in 10.0 mi ENE 4.6 mph - N/A   Clear
5:53 PM 64.0 °F - 42.1 °F 45% 29.93 in 10.0 mi NE 6.9 mph - N/A   Clear
6:53 PM 62.1 °F - 41.0 °F 46% 29.94 in 10.0 mi ENE 4.6 mph - N/A   Clear
8:53 PM 52.0 °F - 42.1 °F 69% 29.95 in 10.0 mi Calm Calm - N/A   Clear
9:53 PM 48.0 °F - 43.0 °F 83% 29.96 in 10.0 mi Calm Calm - N/A   Clear
10:53 PM 45.0 °F - 41.0 °F 86% 29.96 in 10.0 mi Calm Calm - N/A   Clear
11:53 PM 43.0 °F - 39.9 °F 89% 29.96 in 10.0 mi Calm Calm - N/A   Clear